Regional Weather Roundup
Issued by NWS

Home | Current Version | Previous Version | Graphics & Text | Print | Product List | Glossary On
Versions: 1 2 3 4 5 6 7 8 9 10 11 12 13 14 15 16 17 18 19 20 21 22 23 24 25 26 27 28 29 30 31 32 33 34 35 36 37 38 39 40 41 42 43 44 45 46 47 48 49 50
000
ASUS43 KFSD 012102
RWRSD

WEATHER ROUNDUP FOR SOUTH DAKOTA
NATIONAL WEATHER SERVICE SIOUX FALLS SD
400 PM CDT SUN MAY 01 2016

NOTE: "FAIR" INDICATES FEW OR NO CLOUDS BELOW 12,000 FEET WITH NO
SIGNIFICANT WEATHER AND/OR OBSTRUCTIONS TO VISIBILITY.


SDZ001>005-009-010-012>017-012200-
NORTHWEST AND NORTH CENTRAL SOUTH DAKOTA

CITY           SKY/WX    TMP DP  RH WIND       PRES   REMARKS
BUFFALO          N/A     61  27  27 NW9       30.19F
FAITH            N/A     60  27  28 NE9       30.24F
MOBRIDGE       SUNNY     63  32  31 NW12      30.20F
$$

SDZ012>016-024>037-041>051-057-063-072>074-012200-
SOUTHWEST AND SOUTH CENTRAL SOUTH DAKOTA

CITY           SKY/WX    TMP DP  RH WIND       PRES   REMARKS
RAPID CTY ARPT SUNNY     56  31  38 N10       30.26F
PIERRE         SUNNY     59  31  34 VRB3      30.22F
CUSTER         SUNNY     49  22  34 E5        30.26F
ELLSWORTH AFB  SUNNY     57  33  39 NW12      30.25F
PHILIP         SUNNY     59  31  34 N10G18    30.24F
PINE RIDGE     MOSUNNY   56  30  37 N12       30.25F
WINNER         FAIR      59  34  39 N15G24    30.22F
$$

SDZ004>011-016>023-039-040-012200-
NORTHEAST SOUTH DAKOTA

CITY           SKY/WX    TMP DP  RH WIND       PRES   REMARKS
ABERDEEN       SUNNY     63  32  31 NE9G22    30.21F
WATERTOWN      SUNNY     59  30  33 NE14G22   30.17F
BROOKINGS      MOSUNNY   57  33  40 NE10      30.16F
SISSETON         N/A     62  29  28 N8G18     30.17F
$$

SDZ017-020-022-023-036>040-048>070-012200-
SOUTHEAST SOUTH DAKOTA

CITY           SKY/WX    TMP DP  RH WIND       PRES   REMARKS
SIOUX FALLS    PTSUNNY   55  38  52 NE10      30.16F
HURON          SUNNY     61  33  35 NE10G20   30.19F
MITCHELL       MOSUNNY   59  39  47 NE7       30.19F
YANKTON        PTSUNNY   54  39  58 N12       30.16F
$$

ABBREVIATIONS USED IN REMARKS
   TC - TEMPERATURE IN CELSIUS
  WCI - WIND CHILL INDEX
   HX - HEAT INDEX
  VSB - VISIBILITY





USA.gov is the U.S. government's official web portal to all federal, state and local government web resources and services.